Weather History for Cody, WY

Change the Weather History Date:

Sunday, January 13, 2013

  Actual Average Record
Temperature  
Mean Temperature 2 °F -  
Max Temperature 8 °F 34 °F 57 °F (1953)
Min Temperature -5 °F 12 °F -18 °F (1916)
Degree Days  
Heating Degree Days 64    
Moisture  
Dew Point -2 °F    
Average Humidity 82    
Maximum Humidity 100    
Minimum Humidity 61    
Precipitation  
Precipitation 0.00 in - - ()
Sea Level Pressure  
Sea Level Pressure 30.02 in    
Wind  
Wind Speed 3 mph (SSW)    
Max Wind Speed 12 mph    
Max Gust Speed -    
Visibility 9 miles    
Events      
Averages and records for this station are not official NWS values.
T = Trace of Precipitation, MM = Missing Value Source: NWS Daily Summary

Daily Weather History Graph

Daily Weather History Graph

Search for Another Location

Airport:

Trip Planner

Search our weather history database for the weather conditions in past years. The results will help you decide how hot, cold, wet, or windy it might be!

Date:

Astronomy

Jan. 13, 2013 Rise Set
Actual Time 7:50 AM MST 5:00 PM MST
Civil Twilight 7:17 AM MST 5:32 PM MST
Nautical Twilight 6:41 AM MST 6:08 PM MST
Astronomical Twilight 6:06 AM MST 6:43 PM MST
Moon 8:43 AM MST (1/13) 7:50 PM MST (1/13)
Length of Visible Light 10h 15m
Length of Day
9h 10m
Waxing Crescent, 5% of the Moon is Illuminated
Jan 13
Waxing Crescent
Jan 18
First Quarter
Jan 26
Full
Feb 3
Last Quarter
Feb 10
New

Hourly Weather History & Observations

Time (MST) Temp. Windchill Dew Point Humidity Pressure Visibility Wind Dir Wind Speed Gust Speed Precip Events Conditions
12:15 AM 3.2 °F - 1.4 °F 92% 29.99 in 10.0 mi Calm Calm - N/A   Overcast
12:35 AM 1.4 °F - -0.4 °F 92% 29.99 in 10.0 mi Calm Calm - N/A   Overcast
12:55 AM 3.2 °F - 1.4 °F 92% 29.99 in 9.0 mi Calm Calm - N/A   Overcast
1:15 AM 1.4 °F - -0.4 °F 92% 29.99 in 9.0 mi Calm Calm - N/A   Mostly Cloudy
1:35 AM -0.4 °F - -2.2 °F 92% 29.99 in 10.0 mi Calm Calm - N/A   Scattered Clouds
2:35 AM -2.2 °F - -5.8 °F 85% 30.00 in 10.0 mi Calm Calm - N/A   Clear
3:15 AM -4.0 °F -12.4 °F -5.8 °F 92% 30.00 in 10.0 mi South 3.5 mph - N/A   Clear
3:35 AM -4.0 °F -16.3 °F -5.8 °F 92% 30.00 in 10.0 mi South 5.8 mph - N/A   Clear
4:15 AM -2.2 °F - -2.2 °F 100% 29.99 in 10.0 mi Calm Calm - N/A   Overcast
4:35 AM -2.2 °F - -5.8 °F 85% 30.00 in 10.0 mi Calm Calm - N/A   Overcast
4:55 AM -2.2 °F - -2.2 °F 100% 29.99 in 7.0 mi Calm Calm - N/A   Overcast
5:15 AM -0.4 °F - -2.2 °F 92% 30.00 in 8.0 mi Calm Calm - N/A   Overcast
5:35 AM -0.4 °F -8.3 °F -2.2 °F 92% 30.00 in 4.0 mi South 3.5 mph - N/A   Overcast
5:55 AM -0.4 °F - -2.2 °F 92% 30.01 in 5.0 mi Calm Calm - N/A   Overcast
6:15 AM -0.4 °F - -2.2 °F 92% 30.01 in 5.0 mi Calm Calm - N/A   Overcast
6:35 AM -0.4 °F - -0.4 °F 100% 30.02 in 5.0 mi Calm Calm - N/A   Overcast
6:55 AM -0.4 °F - -2.2 °F 92% 30.03 in 5.0 mi Calm Calm - N/A   Overcast
7:35 AM 1.4 °F -6.2 °F -0.4 °F 92% 30.04 in 10.0 mi South 3.5 mph - N/A   Overcast
7:56 AM 1.4 °F -6.2 °F -0.4 °F 92% 30.04 in 10.0 mi South 3.5 mph - N/A   Overcast
8:15 AM 1.4 °F - -0.4 °F 92% 30.05 in 5.0 mi Calm Calm - N/A   Overcast
8:35 AM 3.2 °F -6.2 °F -0.4 °F 85% 30.05 in 5.0 mi SSW 4.6 mph - N/A   Overcast
9:15 AM 3.2 °F -7.8 °F -0.4 °F 85% 30.06 in 9.0 mi SW 5.8 mph - N/A   Overcast
9:35 AM 3.2 °F -9.1 °F -0.4 °F 85% 30.05 in 10.0 mi SW 6.9 mph - N/A   Overcast
10:15 AM 3.2 °F -10.3 °F -0.4 °F 85% 30.05 in 10.0 mi SSW 8.1 mph - N/A   Overcast
10:35 AM 3.2 °F -9.1 °F -0.4 °F 85% 30.05 in 10.0 mi SW 6.9 mph - N/A   Overcast
10:55 AM 6.8 °F -3.5 °F 1.4 °F 79% 30.05 in 10.0 mi WSW 5.8 mph - N/A   Mostly Cloudy
11:35 AM 6.8 °F -2.0 °F -0.4 °F 72% 30.03 in 10.0 mi SW 4.6 mph - N/A   Partly Cloudy
11:55 AM 6.8 °F -5.9 °F -0.4 °F 72% 30.02 in 10.0 mi SSW 8.1 mph - N/A   Clear
12:15 PM 6.8 °F -6.9 °F -0.4 °F 72% 30.01 in 10.0 mi SSW 9.2 mph - N/A   Clear
12:55 PM 8.6 °F -5.5 °F -0.4 °F 67% 30.01 in 10.0 mi SW 10.4 mph - N/A   Clear
1:35 PM 8.6 °F -3.7 °F 1.4 °F 73% 30.01 in 10.0 mi SW 8.1 mph - N/A   Clear
1:55 PM 8.6 °F -1.3 °F 1.4 °F 73% 30.01 in 10.0 mi SW 5.8 mph - N/A   Clear
2:15 PM 8.6 °F -1.3 °F 1.4 °F 73% 30.01 in 10.0 mi SSW 5.8 mph - N/A   Clear
2:35 PM 8.6 °F -1.3 °F 1.4 °F 73% 30.02 in 10.0 mi SSW 5.8 mph - N/A   Clear
2:55 PM 8.6 °F 2.0 °F 1.4 °F 73% 30.03 in 10.0 mi South 3.5 mph - N/A   Clear
3:15 PM 8.6 °F - 1.4 °F 73% 30.03 in 10.0 mi Calm Calm - N/A   Partly Cloudy
3:35 PM 8.6 °F - 1.4 °F 73% 30.04 in 10.0 mi Calm Calm - N/A   Mostly Cloudy
3:55 PM 8.6 °F - 1.4 °F 73% 30.04 in 10.0 mi Calm Calm - N/A   Mostly Cloudy
4:15 PM 8.6 °F - 1.4 °F 73% 30.04 in 10.0 mi Calm Calm - N/A   Partly Cloudy
4:35 PM 6.8 °F -0.1 °F -0.4 °F 72% 30.03 in 10.0 mi SSE 3.5 mph - N/A   Mostly Cloudy
4:55 PM 1.4 °F -9.9 °F -5.8 °F 72% 30.03 in 10.0 mi South 5.8 mph - N/A   Mostly Cloudy
5:15 PM -0.4 °F -12.0 °F -5.8 °F 78% 30.03 in 10.0 mi South 5.8 mph - N/A   Mostly Cloudy
5:35 PM -0.4 °F -10.4 °F -4.0 °F 85% 30.03 in 10.0 mi South 4.6 mph - N/A   Overcast
5:55 PM 1.4 °F - -2.2 °F 85% 30.04 in 10.0 mi Calm Calm - N/A   Overcast
6:15 PM 3.2 °F -7.8 °F -2.2 °F 78% 30.04 in 10.0 mi South 5.8 mph - N/A   Overcast
6:35 PM 3.2 °F -9.1 °F -4.0 °F 72% 30.03 in 10.0 mi South 6.9 mph - N/A   Overcast
6:55 PM 5.0 °F -8.1 °F -4.0 °F 66% 30.03 in 10.0 mi South 8.1 mph - N/A   Overcast
7:35 PM 6.8 °F -7.8 °F -2.2 °F 67% 30.03 in 10.0 mi SW 10.4 mph - N/A   Overcast
7:55 PM 6.8 °F -6.9 °F -0.4 °F 72% 30.02 in 10.0 mi SW 9.2 mph - N/A   Overcast
8:15 PM 6.8 °F -4.8 °F -0.4 °F 72% 30.02 in 10.0 mi WSW 6.9 mph - N/A   Overcast
8:35 PM 6.8 °F -3.5 °F -0.4 °F 72% 30.02 in 10.0 mi WSW 5.8 mph - N/A   Overcast
8:55 PM 5.0 °F -9.1 °F -2.2 °F 72% 30.02 in 10.0 mi SW 9.2 mph - N/A   Overcast
9:15 PM 3.2 °F -10.3 °F -4.0 °F 72% 30.02 in 10.0 mi SW 8.1 mph - N/A   Scattered Clouds
9:35 PM 1.4 °F -15.3 °F -9.4 °F 61% 30.02 in 10.0 mi SW 11.5 mph - N/A   Clear
9:55 PM 1.4 °F -12.5 °F -4.0 °F 78% 30.02 in 10.0 mi SW 8.1 mph - N/A   Clear
10:15 PM -0.4 °F -15.7 °F -7.6 °F 72% 30.01 in 10.0 mi SW 9.2 mph - N/A   Clear
10:35 PM -0.4 °F -8.3 °F -4.0 °F 85% 30.02 in 10.0 mi WNW 3.5 mph - N/A   Clear
10:55 PM -5.8 °F - -11.2 °F 77% 30.02 in 10.0 mi Calm Calm - N/A   Clear
11:35 PM -5.8 °F -16.7 °F -5.8 °F 100% 30.01 in 10.0 mi SSW 4.6 mph - N/A   Partly Cloudy
11:55 PM -5.8 °F - -5.8 °F 100% 30.01 in 10.0 mi Calm Calm - N/A   Mostly Cloudy